Regional Weather Roundup
Issued by NWS

Home | Current Version | Previous Version | Text Only | Print | Product List | Glossary On
Versions: 1 2 3 4 5 6 7 8 9 10 11 12 13 14 15 16 17 18 19 20 21 22 23 24 25 26 27 28 29 30 31 32 33 34 35 36 37 38 39 40 41 42 43 44 45 46 47 48 49 50
000
ASUS43 KDTX 020210
RWRMI
MICHIGAN HOURLY REGIONAL WEATHER ROUNDUP
NATIONAL WEATHER SERVICE DETROIT/PONTIAC MI
1000 PM EDT SUN MAY 01 2016

NOTE: "FAIR" INDICATES FEW OR NO CLOUDS BELOW 12,000 FEET WITH NO
SIGNIFICANT WEATHER AND/OR OBSTRUCTION TO VISIBILITY.

MIZ047>049-052>055-059>063-066>070-074>076-081>083-020300-
SOUTHEAST LOWER MICHIGAN

CITY           SKY/WX    TMP DP  RH WIND       PRES   REMARKS
ADRIAN         CLOUDY    50  47  89 NE12      29.99R
ALMA           CLOUDY    44  38  78 N9        30.08R
ANN ARBOR      CLOUDY    48  44  86 NE12      29.99F
BAD AXE        CLOUDY    44  39  84 NE9G16    30.08R
CARO           CLOUDY    44  40  84 NE6       30.06S
DETROIT CITY   CLOUDY    48  43  82 NE9       30.01F
DETROIT        CLOUDY    49  44  83 N12       29.99F
FLINT          CLOUDY    48  38  68 NE14      30.04F
GROSSE ILE     CLOUDY    50  46  87 N10       29.97F
HILLSDALE      CLOUDY    49  49  99 NE10      29.98R FOG
HOWELL         CLOUDY    46  42  88 NE9       30.01F

CITY           SKY/WX    TMP DP  RH WIND       PRES   REMARKS
JACKSON        CLOUDY    47  44  90 NE13      30.00R
LAMBERTVILLE   CLOUDY    51  49  91 E6        29.98S FOG
LANSING        CLOUDY    46  39  76 NE10      30.04S
LAPEER         CLOUDY    44  39  83 NE8       30.04F
MASON          CLOUDY    46  42  88 NE10      30.01F
MONROE         CLOUDY    50  47  88 N8        29.98R
PONTIAC        CLOUDY    46  41  82 NE12      30.01F
PORT HOPE        N/A     43  39  86 NE9       30.07S
PORT HURON     CLOUDY    45  41  87 N6        30.03S
TRI CITIES     CLOUDY    48  39  71 NE13      30.08S
MIDLAND        MOCLDY    45  37  72 NE3       30.09R
TROY           CLOUDY    47  44  87 N5        30.03F
SAGINAW HB     CLOUDY    45  39  81 NE9       30.06S
$$
MIZ043>046-050>051-056>058-064>065-071>073-077>080-020300-
SOUTHWEST LOWER MICHIGAN

CITY           SKY/WX    TMP DP  RH WIND       PRES   REMARKS
BATTLE CREEK   CLOUDY    47  44  90 NE16      29.99F FOG
BENTON HARBOR  CLOUDY    51  46  83 E15G23    29.93F
BIG RAPIDS     CLOUDY    49  34  56 E9        30.05F
COLDWATER      CLOUDY    50  48  91 NE13      29.96F
FREMONT        CLOUDY    49  38  65 E10       30.04R
HOLLAND        CLOUDY    49  37  63 E13G22    30.01F
GRAND RAPIDS   CLOUDY    48  37  65 NE22G31   30.02F
IONIA          CLOUDY    46  38  73 NE12      30.03F
KALAMAZOO      LGT RAIN  48  44  86 NE10G22   29.97F
LUDINGTON      CLOUDY    50  40  69 NE5       30.06S
MARSHALL       CLOUDY    47  46  93 NE6       29.99S
MOUNT PLEASANT CLOUDY    46  35  65 E7        30.08R
MUSKEGON       CLOUDY    51  39  63 E12       30.02F
SOUTH HAVEN    CLOUDY    49  45  87 NE9G16    29.96F
$$
MIZ016>042-020300-
NORTHERN LOWER MICHIGAN

CITY           SKY/WX    TMP DP  RH WIND       PRES   REMARKS
ALPENA         CLOUDY    47  34  60 E3        30.12R
BEAVER ISLAND  PTCLDY    39  32  77 CALM      30.11R
BELLAIRE       CLOUDY    51  35  54 CALM      30.09S
CADILLAC       CLOUDY    47  34  60 NE5       30.07R
CHARLEVOIX     CLOUDY    49  34  56 CALM      30.14R
FRANKFORT      CLOUDY    50  38  64 CALM      30.08S
GAYLORD        CLOUDY    50  33  52 NE3       30.08S
GRAYLING       CLOUDY    46  36  66 E3        30.10R
HARBOR SPRINGS CLOUDY    51  32  49 CALM      30.11R
HOUGHTON LAKE  CLOUDY    46  32  58 E5        30.09R
MANISTEE       CLOUDY    52  37  58 NE3       30.08S
OSCODA         PTCLDY    42  34  74 N3        30.10S
PELLSTON       CLOUDY    47  36  65 NW3       30.11R
ROGERS CITY    CLOUDY    49  34  56 SE5       30.12S
TRAVERSE CITY  CLOUDY    49  38  65 CALM      30.08R
$$
MIZ007>008-015-020300-
EASTERN UPPER MICHIGAN

CITY           SKY/WX    TMP DP  RH WIND       PRES   REMARKS
KINROSS          N/A     50  34  53 NW3       30.09R
MACKINAC ISLAN CLOUDY    47  32  55 W3        30.10R
NEWBERRY       CLEAR     47  32  56 N3        30.11R
S. S. MARIE    CLOUDY    54  33  45 CALM      30.08S
MUNISING         N/A     41  35  79 NW6       30.14S
$$
MIZ004>006-011>014-085-020300-
CENTRAL UPPER MICHIGAN

CITY           SKY/WX    TMP DP  RH WIND       PRES   REMARKS
MANISTIQUE     CLEAR     40  33  76 N6        30.11R
ESCANABA       CLEAR     48  32  53 N6        30.13R
MENOMINEE      CLEAR     46  34  61 NE5       30.11S
SAWYER-GWINN   CLEAR     37  30  75 N8        30.12S WCI  31
$$
MIZ001>003-009>011-084-020300-
WESTERN UPPER MICHIGAN

CITY           SKY/WX    TMP DP  RH WIND       PRES   REMARKS
IRON MOUNTAIN  CLEAR     50  28  42 CALM      30.12R
HOUGHTON       CLEAR     42  32  67 CALM      30.15S
COPPER HARBOR    N/A     40  36  86 CALM      30.16S
IRONWOOD         N/A     39  34  81 CALM      30.13S
$$

ABBREVIATIONS USED IN REMARKS
   TC - TEMPERATURE IN CELSIUS
  WCI - WIND CHILL INDEX
   HX - HEAT INDEX
  VSB - VISIBILITY




USA.gov is the U.S. government's official web portal to all federal, state and local government web resources and services.